CW4185 Weather Reports


time (UTC)temp
F
wind
direction
speed
knots
gust
knots
rain 1hr
in
rain 24hr
in
rain mn
in
humidity
%
barometer
mb
20260902075646 79 218 0.0 0.9 0.00 0.00 0.00 95 1015.2
20260902075147 79 230 0.0 1.7 0.00 0.00 0.00 95 1015.2
20260902074647 79 236 0.9 1.7 0.00 0.00 0.00 95 1014.9
20260902074146 79 227 0.9 0.9 0.00 0.00 0.00 94 1015.2
20260902073648 80 234 0.0 0.9 0.00 0.00 0.00 94 1015.2
20260902073148 80 226 0.9 1.7 0.00 0.00 0.00 94 1015.2
20260902072646 80 215 0.9 1.7 0.00 0.00 0.00 94 1015.2
20260902072147 80 194 0.9 1.7 0.00 0.00 0.00 94 1015.2
20260902071647 80 176 0.9 0.9 0.00 0.00 0.00 93 1015.2
20260902071146 80 186 0.9 1.7 0.00 0.00 0.00 93 1015.2
20260902070646 80 169 1.7 1.7 0.00 0.00 0.00 93 1015.6
20260902070147 80 186 0.0 1.7 0.00 0.00 0.00 93 1015.6
20260902065646 80 178 0.9 1.7 0.00 0.00 0.00 93 1015.6
20260902065146 80 185 0.9 1.7 0.00 0.00 0.00 93 1015.2
20260902064646 80 177 1.7 1.7 0.00 0.00 0.00 93 1015.6
20260902064146 80 179 0.9 1.7 0.00 0.00 0.00 92 1015.6
20260902063650 80 180 0.9 1.7 0.00 0.00 0.00 92 1015.6
20260902063146 80 176 0.9 1.7 0.00 0.00 0.00 92 1015.6
20260902062646 80 201 0.9 1.7 0.00 0.00 0.00 92 1015.6
20260902062147 80 177 0.9 1.7 0.00 0.00 0.00 92 1015.6
20260902061647 80 163 1.7 1.7 0.00 0.00 0.00 91 1015.6
20260902061146 80 185 0.9 1.7 0.00 0.00 0.00 91 1015.6
20260902060647 80 170 1.7 1.7 0.00 0.00 0.00 91 1015.6
20260902060149 81 170 1.7 1.7 0.00 0.00 0.00 91 1015.6
20260902055649 81 184 0.9 2.6 0.00 0.00 0.00 90 1015.9
20260902055146 81 160 1.7 1.7 0.00 0.00 0.00 90 1015.6
20260902054646 81 166 0.9 2.6 0.00 0.00 0.00 89 1015.6
20260902054147 81 152 1.7 2.6 0.00 0.00 0.00 89 1015.6
20260902053646 81 140 2.6 2.6 0.00 0.00 0.00 90 1015.9
20260902053147 81 66 0.9 1.7 0.00 0.00 0.00 89 1015.6
20260902052647 81 166 0.0 1.7 0.00 0.00 0.00 89 1015.9
20260902052147 81 130 0.9 1.7 0.00 0.00 0.00 89 1015.9
20260902051647 81 72 0.9 1.7 0.00 0.00 0.00 90 1015.9
20260902051147 81 77 0.0 1.7 0.00 0.00 0.00 90 1015.9
20260902050648 81 15 0.0 0.9 0.00 0.00 0.00 90 1015.6
20260902050146 81 67 0.0 0.9 0.00 0.00 0.00 90 1015.9
20260902045647 81 120 0.0 1.7 0.00 0.00 0.29 90 1015.6
20260902045146 81 40 0.0 1.7 0.00 0.00 0.29 89 1015.6
20260902044647 81 93 1.7 2.6 0.00 0.00 0.29 89 1015.6
20260902044146 81 153 2.6 3.5 0.00 0.00 0.29 89 1015.6
20260902043646 82 145 2.6 3.5 0.00 0.00 0.29 89 1015.9
20260902043147 82 140 2.6 2.6 0.00 0.00 0.29 89 1015.9
20260902042646 82 122 0.9 3.5 0.00 0.00 0.29 89 1015.6
20260902042146 82 157 1.7 3.5 0.00 0.00 0.29 89 1015.9
20260902041646 82 153 2.6 2.6 0.00 0.00 0.29 89 1015.6
20260902041147 82 160 2.6 3.5 0.00 0.00 0.29 89 1015.9
20260902040646 82 162 1.7 3.5 0.00 0.00 0.29 88 1015.9
20260902040147 82 139 1.7 2.6 0.00 0.00 0.29 88 1015.9
20260902035648 82 141 2.6 2.6 0.00 0.00 0.29 89 1015.9
20260902035147 82 153 0.9 2.6 0.00 0.00 0.29 89 1016.3
20260902034647 82 171 2.6 3.5 0.00 0.00 0.29 89 1016.3
20260902034146 82 133 2.6 2.6 0.00 0.00 0.29 89 1015.9
20260902033647 82 168 1.7 2.6 0.00 0.00 0.29 89 1015.9
20260902033147 82 149 1.7 2.6 0.00 0.00 0.29 88 1016.3
20260902032649 82 129 0.0 2.6 0.00 0.00 0.29 88 1016.3
20260902032146 82 97 1.7 4.3 0.00 0.00 0.29 88 1016.3
20260902031652 82 169 1.7 2.6 0.00 0.00 0.29 89 1016.3
20260902031147 82 162 0.0 1.7 0.00 0.00 0.29 88 1016.6
20260902030647 82 168 0.9 1.7 0.00 0.00 0.29 88 1016.6
20260902030147 82 98 0.0 1.7 0.00 0.00 0.29 88 1016.6
20260902025646 82 104 0.0 3.5 0.00 0.00 0.29 89 1016.3
20260902025146 82 155 2.6 3.5 0.00 0.00 0.29 89 1016.6
20260902024646 82 166 1.7 2.6 0.00 0.00 0.29 88 1016.3
20260902024146 82 148 0.0 1.7 0.00 0.00 0.29 87 1016.3
20260902023647 82 287 0.0 1.7 0.00 0.00 0.29 87 1016.3
20260902023147 82 146 1.7 1.7 0.00 0.00 0.29 88 1016.3
20260902022647 82 155 2.6 3.5 0.00 0.00 0.29 88 1016.3
20260902022148 82 169 1.7 2.6 0.00 0.00 0.29 87 1015.9
20260902021646 82 171 1.7 2.6 0.00 0.00 0.29 87 1015.9
20260902021146 82 160 0.0 2.6 0.00 0.00 0.29 86 1015.9
20260902020646 82 153 0.9 2.6 0.00 0.00 0.29 86 1015.6
20260902020146 82 141 1.7 2.6 0.00 0.00 0.29 86 1015.9
20260902015646 83 246 0.0 1.7 0.00 0.00 0.29 85 1015.9
20260902015147 83 118 0.9 4.3 0.00 0.00 0.29 85 1015.6
20260902014647 83 64 1.7 2.6 0.00 0.00 0.29 85 1015.6
20260902014146 83 107 0.0 1.7 0.00 0.00 0.29 85 1015.6
20260902013646 82 59 0.0 2.6 0.00 0.00 0.29 85 1015.6
20260902013146 82 169 0.0 2.6 0.00 0.00 0.29 85 1015.6
20260902012647 82 153 2.6 2.6 0.00 0.00 0.29 85 1015.2
20260902012146 82 167 2.6 2.6 0.00 0.00 0.29 84 1015.2
20260902011647 82 147 2.6 2.6 0.00 0.00 0.29 84 1015.2
20260902011147 82 167 1.7 2.6 0.00 0.00 0.29 84 1015.2
20260902010646 82 149 1.7 1.7 0.00 0.00 0.29 84 1015.2
20260902010146 82 136 1.7 1.7 0.00 0.00 0.29 84 1015.2
20260902005646 83 89 0.0 0.9 0.00 0.00 0.29 83 1015.2
20260902005148 83 191 0.0 1.7 0.00 0.00 0.29 83 1014.9
20260902004647 83 172 1.7 1.7 0.00 0.00 0.29 83 1015.2
20260902004146 83 189 1.7 1.7 0.00 0.00 0.29 83 1015.2
20260902003646 83 158 0.0 0.9 0.00 0.00 0.29 83 1015.2
20260902003147 83 159 1.7 2.6 0.00 0.00 0.29 82 1014.9
20260902002646 83 170 1.7 2.6 0.00 0.00 0.29 82 1015.2
20260902002147 83 165 2.6 2.6 0.00 0.00 0.29 81 1014.9
20260902001647 84 141 0.0 2.6 0.00 0.00 0.29 80 1015.2
20260902001147 84 154 0.0 1.7 0.00 0.00 0.29 80 1014.9
20260902000646 83 157 1.7 2.6 0.00 0.00 0.29 80 1014.9
20260902000146 84 179 1.7 2.6 0.00 0.00 0.29 79 1014.9
20260901235647 84 139 1.7 3.5 0.00 0.00 0.29 79 1014.9
20260901235146 84 123 0.9 1.7 0.00 0.00 0.29 80 1014.9
20260901234646 84 217 0.0 1.7 0.00 0.00 0.29 80 1014.9
20260901234146 84 177 1.7 1.7 0.00 0.00 0.29 79 1014.9
20260901233646 83 174 1.7 2.6 0.00 0.00 0.29 78 1014.9
20260901233147 83 173 1.7 2.6 0.00 0.00 0.29 79 1014.9
20260901232646 83 164 3.5 4.3 0.00 0.00 0.29 79 1014.9
20260901232146 83 140 2.6 4.3 0.00 0.00 0.29 78 1014.6
20260901231646 84 153 2.6 3.5 0.00 0.00 0.29 78 1014.9
20260901231147 84 165 2.6 3.5 0.00 0.00 0.29 80 1015.2
20260901230650 84 177 2.6 5.2 0.00 0.00 0.29 80 1015.2
20260901230146 83 165 2.6 4.3 0.00 0.00 0.29 80 1014.9
20260901225646 83 175 3.5 7.8 0.00 0.00 0.29 80 1015.2
20260901225146 83 171 2.6 3.5 0.00 0.00 0.29 85 1015.2
20260901224646 83 164 4.3 4.3 0.00 0.00 0.29 84 1015.2
20260901224150 83 177 4.3 6.1 0.00 0.00 0.29 85 1015.2
20260901223647 83 183 4.3 4.3 0.00 0.00 0.29 84 1015.2
20260901223146 83 184 3.5 5.2 0.00 0.00 0.29 84 1015.2
20260901222646 84 188 4.3 7.0 0.00 0.00 0.29 83 1015.2
20260901222147 84 168 4.3 5.2 0.00 0.00 0.29 81 1015.2
20260901221646 84 174 3.5 5.2 0.00 0.00 0.29 82 1015.2
20260901221146 84 179 4.3 4.3 0.00 0.00 0.29 81 1015.2
20260901220648 84 170 3.5 3.5 0.00 0.00 0.29 79 1014.9
20260901220146 84 76 0.9 6.1 0.00 0.00 0.29 79 1015.2
20260901215646 84 175 4.3 4.3 0.00 0.00 0.29 80 1014.9
20260901215147 84 187 2.6 3.5 0.00 0.00 0.29 81 1014.9
20260901214647 84 168 2.6 3.5 0.00 0.00 0.29 80 1015.2
20260901214147 84 175 5.2 5.2 0.00 0.00 0.29 79 1015.2
20260901213647 84 178 2.6 3.5 0.00 0.00 0.29 80 1015.2
20260901213146 84 178 3.5 4.3 0.00 0.00 0.29 79 1015.2
20260901212647 83 177 2.6 6.1 0.00 0.00 0.29 80 1015.2
20260901212146 84 187 1.7 2.6 0.00 0.00 0.29 78 1015.2
20260901211646 84 330 0.0 2.6 0.00 0.00 0.29 77 1015.2
20260901211147 84 215 0.9 2.6 0.00 0.00 0.29 78 1015.2
20260901210647 83 209 1.7 3.5 0.00 0.00 0.29 79 1015.2
20260901210152 84 164 1.7 3.5 0.00 0.00 0.29 79 1015.2
20260901205647 84 166 2.6 2.6 0.00 0.00 0.29 79 1015.2
20260901205146 84 58 2.6 2.6 0.00 0.00 0.29 79 1015.2
20260901204647 83 307 1.7 1.7 0.00 0.00 0.29 80 1015.2
20260901204146 83 266 0.9 1.7 0.00 0.00 0.29 82 1015.6
20260901203647 82 213 0.9 1.7 0.00 0.00 0.29 83 1015.6
20260901203147 82 181 2.6 2.6 0.00 0.00 0.29 83 1015.9
20260901202647 82 224 0.0 2.6 0.00 0.00 0.29 83 1015.9
20260901202146 83 197 1.7 2.6 0.00 0.00 0.29 82 1015.9
20260901201647 82 217 0.9 2.6 0.00 0.00 0.29 83 1015.9
20260901201147 82 226 0.0 1.7 0.00 0.00 0.29 85 1016.3
20260901200646 82 259 0.9 2.6 0.00 0.00 0.29 85 1016.3
20260901200147 82 20 2.6 3.5 0.00 0.00 0.29 85 1016.6
20260901195646 82 288 2.6 3.5 0.00 0.00 0.29 86 1016.3
20260901195146 82 324 2.6 3.5 0.00 0.00 0.29 87 1016.9
20260901194648 82 332 2.6 3.5 0.00 0.00 0.29 87 1016.9
20260901194147 82 347 2.6 3.5 0.00 0.00 0.29 87 1016.9
20260901193646 82 360 2.6 2.6 0.00 0.00 0.29 86 1016.6
20260901193148 82 292 1.7 3.5 0.00 0.00 0.29 83 1016.6
20260901192646 81 227 3.5 6.1 0.00 0.00 0.29 84 1016.3
20260901192147 82 229 3.5 6.1 0.00 0.00 0.29 87 1016.6
20260901191647 81 195 5.2 7.0 0.00 0.00 0.29 88 1016.3
20260901191146 81 205 3.5 5.2 0.00 0.00 0.29 90 1016.3
20260901190647 80 204 4.3 5.2 0.00 0.00 0.29 90 1016.3
20260901190147 80 230 5.2 7.0 0.00 0.00 0.29 90 1016.3
20260901185646 79 215 6.1 8.7 0.02 0.00 0.29 92 1016.6
20260901185147 79 185 4.3 12.2 0.21 0.00 0.28 92 1015.9
20260901184647 80 210 3.5 13.0 0.47 0.00 0.28 92 1016.3
20260901184147 80 176 5.2 8.7 1.32 0.00 0.25 92 1016.6
20260901183646 81 174 0.0 16.5 1.11 0.00 0.20 89 1016.9
20260901183147 86 163 5.2 8.7 0.02 0.00 0.02 79 1016.3
20260901182647 88 224 2.6 9.6 0.00 0.00 0.02 75 1016.3
20260901182146 88 150 6.1 10.4 0.00 0.00 0.02 72 1015.9
20260901181647 88 158 6.1 9.6 0.00 0.00 0.02 73 1015.9
20260901181147 89 170 6.1 7.8 0.00 0.00 0.02 72 1016.3
20260901180646 90 150 2.6 4.3 0.00 0.00 0.02 67 1016.3
20260901180146 89 169 3.5 7.0 0.00 0.00 0.02 69 1016.3
20260901175646 89 129 6.1 6.1 0.00 0.00 0.02 69 1016.6
20260901175146 90 171 1.7 6.1 0.00 0.00 0.02 68 1016.3
20260901174647 90 282 0.9 6.1 0.00 0.00 0.02 69 1016.3
20260901174147 89 43 2.6 6.1 0.00 0.00 0.02 74 1016.3
20260901173647 87 214 0.0 3.5 0.00 0.00 0.02 77 1016.3
20260901173147 87 180 1.7 5.2 0.00 0.00 0.02 78 1016.3
20260901172647 86 219 1.7 4.3 0.00 0.00 0.02 78 1016.3
20260901172146 86 223 0.9 2.6 0.00 0.00 0.02 78 1016.6
20260901171647 85 229 1.7 2.6 0.00 0.00 0.02 80 1016.6
20260901171147 84 304 1.7 3.5 0.02 0.00 0.02 82 1016.6
20260901170647 83 235 2.6 3.5 0.02 0.00 0.02 83 1016.6
20260901170146 83 221 2.6 5.2 0.02 0.00 0.02 84 1017.3
20260901165646 84 216 7.8 9.6 0.09 0.00 0.02 83 1016.9
20260901165146 87 204 7.8 12.2 0.07 0.00 0.01 77 1016.9
20260901164646 89 164 2.6 8.7 0.00 0.00 0.00 67 1016.9
20260901164146 89 5 0.9 6.1 0.00 0.00 0.00 68 1016.9
20260901163647 89 142 2.6 5.2 0.00 0.00 0.00 68 1016.9
20260901163146 90 71 4.3 6.1 0.00 0.00 0.00 68 1016.9
20260901162646 90 39 7.8 8.7 0.00 0.00 0.00 67 1016.9
20260901162146 89 51 4.3 6.1 0.00 0.00 0.00 69 1016.9
20260901161649 89 82 2.6 7.0 0.00 0.00 0.00 69 1016.9
20260901161146 89 235 0.0 7.8 0.00 0.00 0.00 69 1016.6
20260901160647 89 82 2.6 3.5 0.00 0.00 0.00 69 1016.9
20260901155647 90 37 0.9 4.3 0.00 0.00 0.00 68 1016.6
20260901155146 89 84 3.5 9.6 0.00 0.00 0.00 69 1016.6
20260901154646 89 149 7.0 7.8 0.00 0.00 0.00 69 1016.6
20260901154146 90 144 5.2 5.2 0.00 0.00 0.00 69 1016.6
20260901153647 89 129 2.6 5.2 0.00 0.00 0.00 71 1016.9
20260901153148 90 80 6.1 8.7 0.00 0.00 0.00 69 1016.6
20260901152647 90 69 1.7 7.0 0.00 0.00 0.00 70 1016.6
20260901152147 90 155 3.5 10.4 0.00 0.00 0.00 71 1016.6
20260901151646 90 69 2.6 7.8 0.00 0.00 0.00 71 1016.6
20260901151147 89 156 2.6 8.7 0.00 0.00 0.00 71 1016.9
20260901150647 90 64 3.5 6.1 0.00 0.00 0.00 71 1016.9
20260901150147 90 150 6.1 7.8 0.00 0.00 0.00 71 1016.6
20260901145646 90 21 4.3 6.1 0.00 0.00 0.00 72 1016.6
20260901145147 89 173 1.7 9.6 0.00 0.00 0.00 72 1016.6
20260901144647 89 57 2.6 8.7 0.00 0.00 0.00 73 1016.6
20260901144146 89 130 1.7 7.0 0.00 0.00 0.00 74 1016.3
20260901143647 89 72 4.3 7.8 0.00 0.00 0.00 75 1016.6
20260901143146 88 86 2.6 7.8 0.00 0.00 0.00 77 1016.6
20260901142647 88 14 1.7 6.1 0.00 0.00 0.00 78 1016.6
20260901142146 88 77 6.1 13.0 0.00 0.00 0.00 78 1016.6
20260901141647 87 82 2.6 6.1 0.00 0.00 0.00 79 1016.6
20260901141147 87 202 2.6 6.1 0.00 0.00 0.00 79 1016.6
20260901140647 87 57 2.6 5.2 0.00 0.00 0.00 79 1016.6
20260901140146 87 77 4.3 7.8 0.00 0.00 0.00 79 1016.6
20260901135647 87 172 2.6 5.2 0.00 0.00 0.00 79 1016.6
20260901135147 87 139 2.6 6.1 0.00 0.00 0.00 81 1016.6
20260901134646 87 67 9.6 10.4 0.00 0.00 0.00 81 1016.6
20260901134147 86 1 0.9 6.1 0.00 0.00 0.00 81 1016.6
20260901133647 86 32 0.9 4.3 0.00 0.00 0.00 82 1016.6
20260901133147 86 160 1.7 7.0 0.00 0.00 0.00 82 1016.6
20260901132647 86 69 2.6 5.2 0.00 0.00 0.00 83 1016.6
20260901132147 86 83 4.3 6.1 0.00 0.00 0.00 82 1016.6
20260901131647 86 2 0.9 4.3 0.00 0.00 0.00 83 1016.6
20260901131146 85 220 0.9 3.5 0.00 0.00 0.00 83 1016.6
20260901130648 86 73 2.6 4.3 0.00 0.00 0.00 83 1016.6
20260901130146 85 43 1.7 4.3 0.00 0.00 0.00 83 1016.6
20260901125647 85 85 1.7 4.3 0.00 0.00 0.00 83 1016.3
20260901125146 85 180 1.7 5.2 0.00 0.00 0.00 83 1016.3
20260901124647 85 91 2.6 6.1 0.00 0.00 0.00 83 1016.3
20260901124146 85 153 2.6 4.3 0.00 0.00 0.00 83 1016.3
20260901123647 84 217 0.9 4.3 0.00 0.00 0.00 84 1016.3
20260901123147 84 66 2.6 4.3 0.00 0.00 0.00 85 1015.9
20260901122646 84 28 3.5 5.2 0.00 0.00 0.00 85 1016.3
20260901122146 83 103 0.0 4.3 0.00 0.00 0.00 86 1015.9
20260901121646 83 22 2.6 5.2 0.00 0.00 0.00 86 1015.9
20260901121148 83 72 1.7 3.5 0.00 0.00 0.00 87 1015.9
20260901120647 82 95 1.7 4.3 0.00 0.00 0.00 87 1015.9
20260901120146 82 42 2.6 3.5 0.00 0.00 0.00 88 1015.6
20260901115646 82 76 2.6 4.3 0.00 0.00 0.00 89 1015.9
20260901115146 82 48 2.6 3.5 0.00 0.00 0.00 89 1015.6
20260901114646 81 36 2.6 3.5 0.00 0.00 0.00 90 1015.6
20260901114148 82 216 0.9 4.3 0.00 0.00 0.00 89 1015.2
20260901113646 82 34 1.7 4.3 0.00 0.00 0.00 89 1015.6
20260901113147 81 100 2.6 2.6 0.00 0.00 0.00 90 1015.2
20260901112646 81 62 0.0 2.6 0.00 0.00 0.00 90 1015.2
20260901112147 82 191 2.6 2.6 0.00 0.00 0.00 89 1015.2
20260901111648 82 74 0.0 2.6 0.00 0.00 0.00 90 1015.2
20260901111146 82 51 0.0 1.7 0.00 0.00 0.00 90 1015.2
20260901110646 82 108 0.0 2.6 0.00 0.00 0.00 90 1015.2
20260901110146 82 124 0.9 4.3 0.00 0.00 0.00 90 1014.9
20260901105646 82 78 2.6 2.6 0.00 0.00 0.00 90 1014.9
20260901105146 82 72 0.9 2.6 0.00 0.00 0.00 90 1014.9
20260901104646 82 116 1.7 2.6 0.00 0.00 0.00 90 1014.9
20260901104147 82 112 0.0 2.6 0.00 0.00 0.00 90 1014.9
20260901103646 82 104 1.7 3.5 0.00 0.00 0.00 90 1014.9
20260901103147 82 49 0.9 2.6 0.00 0.00 0.00 90 1014.9
20260901102647 82 104 1.7 2.6 0.00 0.00 0.00 91 1014.9
20260901102148 82 176 1.7 2.6 0.00 0.00 0.00 90 1014.9
20260901101646 82 155 0.0 1.7 0.00 0.00 0.00 90 1014.6
20260901101147 82 61 1.7 2.6 0.00 0.00 0.00 90 1014.9
20260901100646 82 64 0.9 2.6 0.00 0.00 0.00 90 1014.6
20260901100146 82 142 0.0 2.6 0.00 0.00 0.00 89 1014.9
20260901095646 82 97 0.9 4.3 0.00 0.00 0.00 89 1014.6
20260901095149 82 77 2.6 3.5 0.00 0.00 0.00 89 1014.9
20260901094646 82 102 1.7 4.3 0.00 0.00 0.00 89 1014.6
20260901094146 82 294 1.7 4.3 0.00 0.00 0.00 89 1014.6
20260901093648 82 147 3.5 3.5 0.00 0.00 0.00 89 1014.6
20260901093147 82 158 1.7 2.6 0.00 0.00 0.00 89 1014.9
20260901092647 82 168 1.7 1.7 0.00 0.00 0.00 89 1014.6
20260901092146 82 60 1.7 2.6 0.00 0.00 0.00 89 1014.9
20260901091646 82 59 0.9 3.5 0.00 0.00 0.00 89 1014.9
20260901091146 82 146 0.0 2.6 0.00 0.00 0.00 89 1014.9
20260901090647 82 210 0.9 3.5 0.00 0.00 0.00 89 1014.9
20260901090147 82 81 0.9 4.3 0.00 0.00 0.00 89 1014.9
20260901085646 82 31 1.7 2.6 0.00 0.00 0.00 89 1014.9
20260901085146 82 144 0.9 4.3 0.00 0.00 0.00 89 1014.9
20260901084646 82 93 0.9 4.3 0.00 0.00 0.00 89 1014.9
20260901084146 82 192 0.0 4.3 0.00 0.00 0.00 89 1014.6
20260901083647 82 170 1.7 4.3 0.00 0.00 0.00 89 1014.6
20260901083146 82 145 6.1 6.1 0.00 0.00 0.00 89 1014.9
20260901082649 82 74 1.7 3.5 0.00 0.00 0.00 89 1014.9
20260901082147 82 97 2.6 5.2 0.00 0.00 0.00 89 1014.6
20260901081647 82 64 0.9 2.6 0.00 0.00 0.00 89 1014.6
20260901081146 82 97 1.7 3.5 0.00 0.00 0.00 89 1014.9
20260901080647 82 125 2.6 3.5 0.00 0.00 0.00 89 1014.9
20260901080147 82 217 0.0 2.6 0.00 0.00 0.00 89 1014.9